"read_dt","SO2 (ppb)","flags","PMT voltage (V)","lamp voltage (V)","lamp intensity (Hz)","internal temp (C)","react chamber temp (C)","sample flow (l/min)","pres (mmHg)","SO2 bkg (ppb)","SO2 coefficient"
2017-02-15 00:00:00,3844E-3,5C000000,-0724,0836,12132,023.4,045.3,0.442,739.1,01.18,0.508
2017-02-15 00:01:00,4015E-3,5C000000,-0724,0836,12194,023.4,045.3,0.443,739.1,01.18,0.508
2017-02-15 00:02:00,3917E-3,5C000000,-0724,0837,12250,023.4,045.4,0.443,739.1,01.18,0.508
2017-02-15 00:03:00,3972E-3,5C000000,-0724,0836,12130,023.4,045.3,0.442,738.8,01.18,0.508
2017-02-15 00:04:00,3804E-3,5C000000,-0724,0836,12164,023.4,045.3,0.442,739.1,01.18,0.508
2017-02-15 00:05:00,4056E-3,5C000000,-0724,0836,12094,023.4,045.3,0.443,739.0,01.18,0.508
2017-02-15 00:06:00,3917E-3,5C000000,-0724,0836,12069,023.5,045.3,0.442,739.0,01.18,0.508
2017-02-15 00:07:00,3890E-3,5C000000,-0724,0836,12080,023.4,045.3,0.442,738.8,01.18,0.508
2017-02-15 00:08:00,4078E-3,5C000000,-0724,0835,12035,023.5,045.3,0.442,738.8,01.18,0.508
2017-02-15 00:09:00,3948E-3,5C000000,-0724,0836,12054,023.5,045.3,0.443,738.9,01.18,0.508
2017-02-15 00:10:00,3742E-3,5C000000,-0724,0837,12142,023.5,045.3,0.442,738.9,01.18,0.508
2017-02-15 00:11:00,3852E-3,5C000000,-0724,0837,12013,023.5,045.3,0.442,739.0,01.18,0.508
2017-02-15 00:12:00,3996E-3,5C000000,-0724,0836,11981,023.5,045.3,0.442,738.8,01.18,0.508
2017-02-15 00:13:00,3794E-3,5C000000,-0724,0837,12018,023.5,045.3,0.443,739.0,01.18,0.508
2017-02-15 00:14:00,3897E-3,5C000000,-0724,0836,11981,023.5,045.3,0.443,738.8,01.18,0.508
2017-02-15 00:15:00,3860E-3,5C000000,-0724,0836,12179,023.5,045.3,0.442,738.9,01.18,0.508
2017-02-15 00:16:00,3976E-3,5C000000,-0724,0837,12232,023.5,045.3,0.442,738.9,01.18,0.508
2017-02-15 00:17:00,3942E-3,5C000000,-0724,0836,11975,023.5,045.3,0.442,738.9,01.18,0.508
2017-02-15 00:18:00,3923E-3,5C000000,-0724,0837,12018,023.5,045.3,0.443,738.9,01.18,0.508
2017-02-15 00:19:00,3667E-3,5C000000,-0724,0836,12022,023.5,045.3,0.442,738.8,01.18,0.508
2017-02-15 00:20:00,4057E-3,5C000000,-0724,0837,12032,023.5,045.3,0.442,738.8,01.18,0.508
2017-02-15 00:21:00,3825E-3,5C000000,-0724,0836,12010,023.5,045.3,0.443,738.7,01.18,0.508
2017-02-15 00:22:00,3973E-3,5C000000,-0724,0835,12062,023.5,045.3,0.442,738.9,01.18,0.508
2017-02-15 00:23:00,3926E-3,5C000000,-0724,0836,12192,023.5,045.3,0.442,738.9,01.18,0.508
2017-02-15 00:24:00,3999E-3,5C000000,-0724,0836,11978,023.5,045.3,0.442,739.0,01.18,0.508
2017-02-15 00:25:00,3997E-3,5C000000,-0724,0836,12147,023.5,045.3,0.442,739.0,01.18,0.508
2017-02-15 00:26:00,3708E-3,5C000000,-0724,0836,12006,023.5,045.3,0.443,739.0,01.18,0.508
2017-02-15 00:27:00,3712E-3,5C000000,-0724,0836,12062,023.5,045.3,0.442,739.0,01.18,0.508
2017-02-15 00:28:00,3659E-3,5C000000,-0724,0836,12044,023.5,045.3,0.442,738.9,01.18,0.508
2017-02-15 00:29:00,4018E-3,5C000000,-0724,0837,12015,023.5,045.3,0.443,739.1,01.18,0.508
2017-02-15 00:30:00,3897E-3,5C000000,-0724,0836,12061,023.5,045.4,0.443,739.0,01.18,0.508
2017-02-15 00:31:00,3833E-3,5C000000,-0724,0836,12028,023.5,045.3,0.442,739.0,01.18,0.508
2017-02-15 00:32:00,3799E-3,5C000000,-0724,0837,12084,023.6,045.3,0.442,738.9,01.18,0.508
2017-02-15 00:33:00,3736E-3,5C000000,-0724,0836,12039,023.5,045.3,0.443,739.0,01.18,0.508
2017-02-15 00:34:00,3822E-3,5C000000,-0724,0836,12107,023.5,045.3,0.442,738.8,01.18,0.508
2017-02-15 00:35:00,3832E-3,5C000000,-0724,0835,11935,023.5,045.3,0.442,738.9,01.18,0.508
2017-02-15 00:36:00,3752E-3,5C000000,-0724,0837,12031,023.6,045.3,0.442,738.8,01.18,0.508
2017-02-15 00:37:00,3846E-3,5C000000,-0724,0836,12054,023.6,045.3,0.442,738.6,01.18,0.508
2017-02-15 00:38:00,3658E-3,5C000000,-0724,0837,12225,023.5,045.3,0.442,738.7,01.18,0.508
2017-02-15 00:39:00,3964E-3,5C000000,-0724,0837,12089,023.5,045.3,0.443,739.0,01.18,0.508
2017-02-15 00:40:00,3920E-3,5C000000,-0724,0836,12028,023.6,045.3,0.442,738.9,01.18,0.508
2017-02-15 00:41:00,3900E-3,5C000000,-0724,0836,11888,023.6,045.3,0.442,738.9,01.18,0.508
2017-02-15 00:42:00,3870E-3,5C000000,-0724,0836,12016,023.6,045.3,0.442,739.0,01.18,0.508
2017-02-15 00:43:00,3667E-3,5C000000,-0724,0836,12163,023.6,045.3,0.442,738.7,01.18,0.508
2017-02-15 00:44:00,4011E-3,5C000000,-0724,0836,12123,023.5,045.3,0.442,738.6,01.18,0.508
2017-02-15 00:45:00,3839E-3,5C000000,-0724,0837,12089,023.6,045.3,0.443,738.7,01.18,0.508
2017-02-15 00:46:00,3815E-3,5C000000,-0724,0837,12002,023.5,045.3,0.442,738.7,01.18,0.508
2017-02-15 00:47:00,3807E-3,5C000000,-0724,0836,12112,023.6,045.3,0.442,738.8,01.18,0.508
2017-02-15 00:48:00,3914E-3,5C000000,-0724,0836,12074,023.5,045.3,0.442,738.9,01.18,0.508
2017-02-15 00:49:00,3829E-3,5C000000,-0724,0836,12049,023.5,045.3,0.442,738.9,01.18,0.508
2017-02-15 00:50:00,3911E-3,5C000000,-0724,0835,12106,023.5,045.3,0.443,738.9,01.18,0.508
2017-02-15 00:51:00,3836E-3,5C000000,-0724,0837,12047,023.5,045.3,0.443,739.0,01.18,0.508
2017-02-15 00:52:00,3842E-3,5C000000,-0724,0836,11963,023.5,045.3,0.442,738.9,01.18,0.508
2017-02-15 00:53:00,3929E-3,5C000000,-0724,0836,11983,023.6,045.3,0.442,738.8,01.18,0.508
2017-02-15 00:54:00,3987E-3,5C000000,-0724,0836,12122,023.5,045.3,0.442,738.8,01.18,0.508
2017-02-15 00:55:00,4070E-3,5C000000,-0724,0836,12086,023.5,045.3,0.443,738.8,01.18,0.508
2017-02-15 00:56:00,3885E-3,5C000000,-0724,0836,12173,023.5,045.3,0.443,738.9,01.18,0.508
2017-02-15 00:57:00,3805E-3,5C000000,-0724,0836,12012,023.5,045.3,0.442,738.8,01.18,0.508
2017-02-15 00:58:00,4036E-3,5C000000,-0724,0836,11999,023.5,045.3,0.442,738.8,01.18,0.508
2017-02-15 00:59:00,3903E-3,5C000000,-0724,0836,12072,023.5,045.3,0.442,738.8,01.18,0.508
2017-02-15 01:00:00,3912E-3,5C000000,-0724,0836,12189,023.5,045.3,0.443,738.7,01.18,0.508
2017-02-15 01:01:00,3910E-3,5C000000,-0724,0836,12161,023.5,045.3,0.442,738.7,01.18,0.508
2017-02-15 01:02:00,3751E-3,5C000000,-0724,0836,12116,023.5,045.3,0.442,738.8,01.18,0.508
2017-02-15 01:03:00,3802E-3,5C000000,-0724,0836,12033,023.5,045.3,0.442,738.7,01.18,0.508
2017-02-15 01:04:00,3637E-3,5C000000,-0724,0836,12059,023.5,045.3,0.442,738.7,01.18,0.508
2017-02-15 01:05:00,3933E-3,5C000000,-0724,0836,11966,023.5,045.3,0.443,738.9,01.18,0.508
2017-02-15 01:06:00,3804E-3,5C000000,-0724,0836,12066,023.5,045.3,0.442,738.6,01.18,0.508
2017-02-15 01:07:00,3660E-3,5C000000,-0724,0836,12064,023.5,045.3,0.442,738.6,01.18,0.508
2017-02-15 01:08:00,3829E-3,5C000000,-0724,0836,12104,023.5,045.3,0.442,738.7,01.18,0.508
2017-02-15 01:09:00,3920E-3,5C000000,-0724,0837,12197,023.5,045.3,0.443,738.7,01.18,0.508
2017-02-15 01:10:00,3920E-3,5C000000,-0724,0836,12031,023.5,045.3,0.442,738.4,01.18,0.508
2017-02-15 01:11:00,3939E-3,5C000000,-0724,0837,12027,023.5,045.3,0.442,738.6,01.18,0.508
2017-02-15 01:12:00,3824E-3,5C000000,-0724,0837,12032,023.5,045.3,0.442,738.3,01.18,0.508
2017-02-15 01:13:00,3881E-3,5C000000,-0724,0836,12120,023.5,045.3,0.442,738.5,01.18,0.508
2017-02-15 01:14:00,4088E-3,5C000000,-0724,0836,12081,023.6,045.3,0.442,738.5,01.18,0.508
2017-02-15 01:15:00,3925E-3,5C000000,-0724,0836,11917,023.5,045.3,0.442,738.5,01.18,0.508
2017-02-15 01:16:00,3922E-3,5C000000,-0724,0836,12137,023.6,045.3,0.442,738.6,01.18,0.508
2017-02-15 01:17:00,3997E-3,5C000000,-0724,0836,12084,023.5,045.3,0.442,738.0,01.18,0.508
2017-02-15 01:18:00,4088E-3,5C000000,-0724,0836,12134,023.6,045.3,0.442,738.4,01.18,0.508
2017-02-15 01:19:00,4035E-3,5C000000,-0724,0836,12104,023.5,045.3,0.442,738.5,01.18,0.508
2017-02-15 01:20:00,3808E-3,5C000000,-0724,0836,12078,023.6,045.3,0.442,738.3,01.18,0.508
2017-02-15 01:21:00,3833E-3,5C000000,-0724,0836,12030,023.6,045.3,0.442,738.3,01.18,0.508
2017-02-15 01:22:00,3992E-3,5C000000,-0724,0836,12067,023.6,045.3,0.442,738.2,01.18,0.508
2017-02-15 01:23:00,3747E-3,5C000000,-0724,0836,11886,023.5,045.3,0.441,738.4,01.18,0.508
2017-02-15 01:24:00,3738E-3,5C000000,-0724,0836,11929,023.5,045.3,0.442,738.1,01.18,0.508
2017-02-15 01:25:00,3963E-3,5C000000,-0724,0836,11994,023.6,045.3,0.442,738.1,01.18,0.508
2017-02-15 01:26:00,4077E-3,5C000000,-0724,0836,12100,023.6,045.3,0.442,738.1,01.18,0.508
2017-02-15 01:27:00,3961E-3,5C000000,-0724,0836,11998,023.6,045.3,0.442,738.4,01.18,0.508
2017-02-15 01:28:00,3833E-3,5C000000,-0724,0836,12051,023.6,045.3,0.442,738.3,01.18,0.508
2017-02-15 01:29:00,3880E-3,5C000000,-0724,0836,12068,023.6,045.3,0.442,738.3,01.18,0.508
2017-02-15 01:30:00,3765E-3,5C000000,-0724,0836,11993,023.6,045.3,0.442,738.3,01.18,0.508
2017-02-15 01:31:00,4109E-3,5C000000,-0724,0837,11985,023.6,045.3,0.442,738.3,01.18,0.508
2017-02-15 01:32:00,3799E-3,5C000000,-0724,0836,12109,023.6,045.3,0.442,738.2,01.18,0.508
2017-02-15 01:33:00,3822E-3,5C000000,-0724,0836,11902,023.6,045.3,0.442,738.2,01.18,0.508
2017-02-15 01:34:00,3749E-3,5C000000,-0724,0837,12122,023.6,045.3,0.442,738.4,01.18,0.508
2017-02-15 01:35:00,4145E-3,5C000000,-0724,0836,12044,023.6,045.3,0.442,738.6,01.18,0.508
2017-02-15 01:36:00,3891E-3,5C000000,-0724,0836,11985,023.6,045.3,0.442,738.3,01.18,0.508
2017-02-15 01:37:00,3735E-3,5C000000,-0724,0836,12108,023.6,045.3,0.442,738.6,01.18,0.508
2017-02-15 01:38:00,3887E-3,5C000000,-0724,0836,12179,023.6,045.3,0.442,738.6,01.18,0.508
2017-02-15 01:39:00,4075E-3,5C000000,-0724,0836,12073,023.6,045.3,0.442,738.8,01.18,0.508
2017-02-15 01:40:00,3824E-3,5C000000,-0724,0836,11943,023.6,045.3,0.442,738.6,01.18,0.508
2017-02-15 01:41:00,3909E-3,5C000000,-0724,0836,12225,023.6,045.3,0.442,738.7,01.18,0.508
2017-02-15 01:42:00,4009E-3,5C000000,-0724,0836,11965,023.6,045.3,0.442,738.8,01.18,0.508
2017-02-15 01:43:00,3881E-3,5C000000,-0724,0837,12014,023.6,045.3,0.442,738.6,01.18,0.508
2017-02-15 01:44:00,3779E-3,5C000000,-0724,0836,12162,023.6,045.3,0.443,738.8,01.18,0.508
2017-02-15 01:45:00,3905E-3,5C000000,-0724,0836,12115,023.6,045.3,0.442,738.7,01.18,0.508
2017-02-15 01:46:00,3951E-3,5C000000,-0724,0836,11974,023.6,045.3,0.442,738.6,01.18,0.508
2017-02-15 01:47:00,3915E-3,5C000000,-0724,0836,12084,023.6,045.3,0.442,738.8,01.18,0.508
2017-02-15 01:48:00,3859E-3,5C000000,-0724,0836,12197,023.6,045.3,0.442,738.6,01.18,0.508
2017-02-15 01:49:00,3925E-3,5C000000,-0724,0836,12162,023.6,045.3,0.442,738.5,01.18,0.508
2017-02-15 01:50:00,3829E-3,5C000000,-0724,0836,12165,023.6,045.3,0.442,738.8,01.18,0.508
2017-02-15 01:51:00,3839E-3,5C000000,-0724,0836,12059,023.6,045.3,0.442,738.7,01.18,0.508
2017-02-15 01:52:00,3851E-3,5C000000,-0724,0837,12246,023.6,045.3,0.442,738.7,01.18,0.508
2017-02-15 01:53:00,4050E-3,5C000000,-0724,0836,12148,023.6,045.3,0.442,738.6,01.18,0.508
2017-02-15 01:54:00,3819E-3,5C000000,-0724,0836,11918,023.6,045.3,0.442,738.3,01.18,0.508
2017-02-15 01:55:00,4006E-3,5C000000,-0724,0836,12103,023.6,045.3,0.442,738.4,01.18,0.508
2017-02-15 01:56:00,3975E-3,5C000000,-0724,0836,11985,023.6,045.4,0.442,738.2,01.18,0.508
2017-02-15 01:57:00,4016E-3,5C000000,-0724,0836,12162,023.6,045.3,0.442,738.6,01.18,0.508
2017-02-15 01:58:00,4037E-3,5C000000,-0724,0837,12076,023.6,045.3,0.442,738.4,01.18,0.508
2017-02-15 01:59:00,4070E-3,5C000000,-0724,0836,12101,023.6,045.3,0.442,738.5,01.18,0.508
2017-02-15 02:00:00,3959E-3,5C000000,-0724,0836,12144,023.6,045.3,0.442,738.7,01.18,0.508
2017-02-15 02:01:00,4097E-3,5C000000,-0724,0836,12094,023.6,045.3,0.442,738.6,01.18,0.508
2017-02-15 02:02:00,3895E-3,5C000000,-0724,0836,12185,023.6,045.3,0.442,738.8,01.18,0.508
2017-02-15 02:03:00,4046E-3,5C000000,-0724,0836,12234,023.7,045.3,0.442,738.6,01.18,0.508
2017-02-15 02:04:00,4023E-3,5C000000,-0724,0836,12134,023.7,045.3,0.442,738.8,01.18,0.508
2017-02-15 02:05:00,4017E-3,5C000000,-0724,0835,12041,023.7,045.3,0.442,738.8,01.18,0.508
2017-02-15 02:06:00,4099E-3,5C000000,-0724,0837,12149,023.6,045.3,0.442,738.6,01.18,0.508
2017-02-15 02:07:00,3895E-3,5C000000,-0724,0836,12032,023.7,045.3,0.441,738.6,01.18,0.508
2017-02-15 02:08:00,4136E-3,5C000000,-0724,0835,12092,023.7,045.3,0.441,738.4,01.18,0.508
2017-02-15 02:09:00,4027E-3,5C000000,-0724,0836,12232,023.7,045.3,0.442,738.3,01.18,0.508
2017-02-15 02:10:00,4054E-3,5C000000,-0724,0835,12063,023.7,045.4,0.442,738.4,01.18,0.508
2017-02-15 02:11:00,4031E-3,5C000000,-0724,0837,12185,023.7,045.4,0.441,738.4,01.18,0.508
2017-02-15 02:12:00,4044E-3,5C000000,-0724,0836,11972,023.7,045.3,0.442,738.3,01.18,0.508
2017-02-15 02:13:00,4004E-3,5C000000,-0724,0837,12079,023.7,045.3,0.442,738.5,01.18,0.508
2017-02-15 02:14:00,4062E-3,5C000000,-0724,0836,11976,023.7,045.3,0.442,738.6,01.18,0.508
2017-02-15 02:15:00,4083E-3,5C000000,-0724,0836,12087,023.7,045.3,0.441,738.5,01.18,0.508
2017-02-15 02:16:00,4001E-3,5C000000,-0724,0836,12084,023.7,045.3,0.442,738.6,01.18,0.508
2017-02-15 02:17:00,4103E-3,5C000000,-0724,0837,12113,023.7,045.3,0.442,738.3,01.18,0.508
2017-02-15 02:18:00,3857E-3,5C000000,-0724,0836,12100,023.7,045.3,0.442,738.5,01.18,0.508
2017-02-15 02:19:00,4040E-3,5C000000,-0724,0836,12128,023.7,045.3,0.441,738.5,01.18,0.508
2017-02-15 02:20:00,3988E-3,5C000000,-0724,0837,12179,023.7,045.3,0.441,738.3,01.18,0.508
2017-02-15 02:21:00,4015E-3,5C000000,-0724,0836,12127,023.7,045.3,0.442,738.6,01.18,0.508
2017-02-15 02:22:00,4294E-3,5C000000,-0724,0836,12094,023.7,045.3,0.442,738.6,01.18,0.508
2017-02-15 02:23:00,4018E-3,5C000000,-0724,0836,12185,023.7,045.3,0.441,738.7,01.18,0.508
2017-02-15 02:24:00,4021E-3,5C000000,-0724,0835,12117,023.7,045.3,0.441,738.6,01.18,0.508
2017-02-15 02:25:00,4107E-3,5C000000,-0724,0837,12137,023.7,045.3,0.442,738.3,01.18,0.508
2017-02-15 02:26:00,4044E-3,5C000000,-0724,0836,12047,023.7,045.3,0.442,738.6,01.18,0.508
2017-02-15 02:27:00,3990E-3,5C000000,-0724,0835,12230,023.7,045.3,0.442,738.5,01.18,0.508
2017-02-15 02:28:00,4114E-3,5C000000,-0724,0836,12145,023.7,045.3,0.441,738.6,01.18,0.508
2017-02-15 02:29:00,3951E-3,5C000000,-0724,0836,12055,023.7,045.3,0.442,738.7,01.18,0.508
2017-02-15 02:30:00,4161E-3,5C000000,-0724,0837,12154,023.7,045.3,0.442,738.6,01.18,0.508
2017-02-15 02:31:00,4260E-3,5C000000,-0724,0837,12056,023.7,045.3,0.442,738.2,01.18,0.508
2017-02-15 02:32:00,3987E-3,5C000000,-0724,0835,12112,023.7,045.3,0.441,738.2,01.18,0.508
2017-02-15 02:33:00,4230E-3,5C000000,-0724,0835,12145,023.7,045.3,0.441,738.3,01.18,0.508
2017-02-15 02:34:00,4105E-3,5C000000,-0724,0836,12023,023.7,045.3,0.442,738.2,01.18,0.508
2017-02-15 02:35:00,3981E-3,5C000000,-0724,0836,12161,023.7,045.3,0.442,738.1,01.18,0.508
2017-02-15 02:36:00,4047E-3,5C000000,-0724,0836,12214,023.7,045.3,0.442,738.1,01.18,0.508
2017-02-15 02:37:00,4153E-3,5C000000,-0724,0835,12082,023.7,045.3,0.441,738.3,01.18,0.508
2017-02-15 02:38:00,4055E-3,5C000000,-0724,0836,12196,023.7,045.3,0.441,738.4,01.18,0.508
2017-02-15 02:39:00,4230E-3,5C000000,-0724,0835,12038,023.7,045.3,0.442,738.4,01.18,0.508
2017-02-15 02:40:00,4109E-3,5C000000,-0724,0835,12119,023.7,045.3,0.442,737.9,01.18,0.508
2017-02-15 02:41:00,4007E-3,5C000000,-0724,0835,12040,023.7,045.3,0.442,738.3,01.18,0.508
2017-02-15 02:42:00,4076E-3,5C000000,-0724,0837,12158,023.7,045.3,0.442,738.4,01.18,0.508
2017-02-15 02:43:00,3975E-3,5C000000,-0724,0836,12077,023.7,045.3,0.441,738.5,01.18,0.508
2017-02-15 02:44:00,4114E-3,5C000000,-0724,0835,12145,023.7,045.3,0.441,738.5,01.18,0.508
2017-02-15 02:45:00,4105E-3,5C000000,-0724,0836,12051,023.7,045.3,0.442,738.4,01.18,0.508
2017-02-15 02:46:00,4267E-3,5C000000,-0724,0835,12080,023.7,045.3,0.442,738.5,01.18,0.508
2017-02-15 02:47:00,4120E-3,5C000000,-0724,0837,12078,023.7,045.3,0.442,738.4,01.18,0.508
2017-02-15 02:48:00,4064E-3,5C000000,-0724,0837,12086,023.7,045.3,0.442,738.2,01.18,0.508
2017-02-15 02:49:00,4178E-3,5C000000,-0724,0837,11942,023.7,045.3,0.441,738.1,01.18,0.508
2017-02-15 02:50:00,4104E-3,5C000000,-0724,0836,12003,023.7,045.3,0.441,738.4,01.18,0.508
2017-02-15 02:51:00,4136E-3,5C000000,-0724,0836,12108,023.7,045.3,0.442,738.4,01.18,0.508
2017-02-15 02:52:00,4075E-3,5C000000,-0724,0837,12050,023.7,045.3,0.442,738.2,01.18,0.508
2017-02-15 02:53:00,4092E-3,5C000000,-0724,0836,12049,023.7,045.3,0.442,738.0,01.18,0.508
2017-02-15 02:54:00,3992E-3,5C000000,-0724,0836,12145,023.7,045.3,0.442,738.2,01.18,0.508
2017-02-15 02:55:00,4135E-3,5C000000,-0724,0836,11998,023.7,045.3,0.441,738.0,01.18,0.508
2017-02-15 02:56:00,4024E-3,5C000000,-0724,0836,12042,023.7,045.3,0.441,737.9,01.18,0.508
2017-02-15 02:57:00,4023E-3,5C000000,-0724,0836,12096,023.7,045.3,0.442,738.2,01.18,0.508
2017-02-15 02:58:00,4082E-3,5C000000,-0724,0836,12173,023.6,045.3,0.442,738.2,01.18,0.508
2017-02-15 02:59:00,3938E-3,5C000000,-0724,0836,12062,023.6,045.4,0.442,738.1,01.18,0.508
2017-02-15 03:00:00,4254E-3,5C000000,-0724,0837,12226,023.6,045.3,0.442,738.2,01.18,0.508
2017-02-15 03:01:00,4019E-3,5C000000,-0724,0837,11969,023.6,045.3,0.442,738.0,01.18,0.508
2017-02-15 03:02:00,3955E-3,5C000000,-0724,0836,12137,023.6,045.3,0.441,738.1,01.18,0.508
2017-02-15 03:03:00,4351E-3,5C000000,-0724,0836,12068,023.6,045.3,0.441,738.1,01.18,0.508
2017-02-15 03:04:00,4186E-3,5C000000,-0724,0836,11991,023.6,045.3,0.442,738.2,01.18,0.508
2017-02-15 03:05:00,3883E-3,5C000000,-0724,0838,12269,023.6,045.3,0.442,738.4,01.18,0.508
2017-02-15 03:06:00,4173E-3,5C000000,-0724,0839,12193,023.6,045.3,0.442,738.4,01.18,0.508
2017-02-15 03:07:00,4004E-3,5C000000,-0724,0837,10948,023.6,045.3,0.442,738.6,01.18,0.508
2017-02-15 03:08:00,4101E-3,5C000000,-0724,0837,12158,023.6,045.3,0.442,738.6,01.18,0.508
2017-02-15 03:09:00,4088E-3,5C000000,-0724,0836,12135,023.6,045.3,0.442,738.3,01.18,0.508
2017-02-15 03:10:00,4010E-3,5C000000,-0724,0837,12093,023.6,045.3,0.442,738.4,01.18,0.508
2017-02-15 03:11:00,4209E-3,5C000000,-0724,0836,11867,023.6,045.3,0.442,738.4,01.18,0.508
2017-02-15 03:12:00,4226E-3,5C000000,-0724,0836,12073,023.6,045.3,0.442,738.5,01.18,0.508
2017-02-15 03:13:00,4227E-3,5C000000,-0724,0836,12013,023.6,045.3,0.442,738.3,01.18,0.508
2017-02-15 03:14:00,4199E-3,5C000000,-0724,0837,12072,023.6,045.3,0.442,738.5,01.18,0.508
2017-02-15 03:15:00,4144E-3,5C000000,-0724,0837,12038,023.6,045.3,0.442,738.5,01.18,0.508
2017-02-15 03:16:00,4115E-3,5C000000,-0724,0836,12121,023.6,045.3,0.442,738.3,01.18,0.508
2017-02-15 03:17:00,4214E-3,5C000000,-0724,0836,12049,023.6,045.3,0.442,738.4,01.18,0.508
2017-02-15 03:18:00,4140E-3,5C000000,-0724,0837,12090,023.6,045.3,0.442,738.4,01.18,0.508
2017-02-15 03:19:00,4083E-3,5C000000,-0724,0837,12035,023.6,045.3,0.442,738.4,01.18,0.508
2017-02-15 03:20:00,4162E-3,5C000000,-0724,0836,12043,023.6,045.3,0.442,738.3,01.18,0.508
2017-02-15 03:21:00,4279E-3,5C000000,-0724,0837,12010,023.5,045.3,0.442,738.2,01.18,0.508
2017-02-15 03:22:00,4127E-3,5C000000,-0724,0837,12139,023.6,045.3,0.442,738.2,01.18,0.508
2017-02-15 03:23:00,4016E-3,5C000000,-0724,0836,12071,023.5,045.3,0.443,738.5,01.18,0.508
2017-02-15 03:24:00,4131E-3,5C000000,-0724,0836,12032,023.5,045.3,0.442,738.4,01.18,0.508
2017-02-15 03:25:00,4229E-3,5C000000,-0724,0836,12034,023.5,045.3,0.442,738.3,01.18,0.508
2017-02-15 03:26:00,4181E-3,5C000000,-0724,0836,12183,023.5,045.3,0.442,738.3,01.18,0.508
2017-02-15 03:27:00,4053E-3,5C000000,-0724,0836,12149,023.5,045.3,0.442,738.2,01.18,0.508
2017-02-15 03:28:00,4377E-3,5C000000,-0724,0836,12105,023.5,045.3,0.442,738.3,01.18,0.508
2017-02-15 03:29:00,4163E-3,5C000000,-0724,0836,11977,023.5,045.3,0.442,738.3,01.18,0.508
2017-02-15 03:30:00,4208E-3,5C000000,-0724,0836,12047,023.5,045.3,0.442,738.2,01.18,0.508
2017-02-15 03:31:00,4257E-3,5C000000,-0724,0837,12054,023.5,045.3,0.442,738.0,01.18,0.508
2017-02-15 03:32:00,4063E-3,5C000000,-0724,0837,12119,023.5,045.3,0.442,738.1,01.18,0.508
2017-02-15 03:33:00,4197E-3,5C000000,-0724,0836,12081,023.5,045.3,0.443,738.2,01.18,0.508
2017-02-15 03:34:00,4166E-3,5C000000,-0724,0837,12129,023.5,045.3,0.442,738.0,01.18,0.508
2017-02-15 03:35:00,4193E-3,5C000000,-0724,0837,12032,023.5,045.3,0.442,738.2,01.18,0.508
2017-02-15 03:36:00,4284E-3,5C000000,-0724,0836,12078,023.5,045.3,0.442,737.9,01.18,0.508
2017-02-15 03:37:00,4384E-3,5C000000,-0724,0837,12002,023.5,045.3,0.442,737.8,01.18,0.508
2017-02-15 03:38:00,4210E-3,5C000000,-0724,0837,12054,023.5,045.3,0.442,737.8,01.18,0.508
2017-02-15 03:39:00,3984E-3,5C000000,-0724,0837,11997,023.5,045.3,0.442,737.9,01.18,0.508
2017-02-15 03:40:00,4045E-3,5C000000,-0724,0837,12193,023.5,045.3,0.442,737.9,01.18,0.508
2017-02-15 03:41:00,4382E-3,5C000000,-0724,0836,12061,023.5,045.3,0.442,737.8,01.18,0.508
2017-02-15 03:42:00,4130E-3,5C000000,-0724,0837,12124,023.5,045.3,0.442,737.9,01.18,0.508
2017-02-15 03:43:00,4391E-3,5C000000,-0724,0836,12121,023.5,045.3,0.442,737.9,01.18,0.508
2017-02-15 03:44:00,4020E-3,5C000000,-0724,0837,12128,023.5,045.3,0.442,737.8,01.18,0.508
2017-02-15 03:45:00,4117E-3,5C000000,-0724,0837,11996,023.5,045.3,0.442,737.9,01.18,0.508
2017-02-15 03:46:00,4025E-3,5C000000,-0724,0836,11973,023.4,045.3,0.442,737.8,01.18,0.508
2017-02-15 03:47:00,4265E-3,5C000000,-0724,0836,12070,023.4,045.3,0.442,737.8,01.18,0.508
2017-02-15 03:48:00,4011E-3,5C000000,-0724,0837,12106,023.4,045.3,0.442,737.8,01.18,0.508
2017-02-15 03:49:00,4313E-3,5C000000,-0724,0836,11976,023.4,045.3,0.442,737.7,01.18,0.508
2017-02-15 03:50:00,4198E-3,5C000000,-0724,0837,11990,023.4,045.3,0.442,737.8,01.18,0.508
2017-02-15 03:51:00,4085E-3,5C000000,-0724,0837,12191,023.4,045.3,0.442,737.7,01.18,0.508
2017-02-15 03:52:00,4238E-3,5C000000,-0724,0836,12124,023.4,045.3,0.442,737.6,01.18,0.508
2017-02-15 03:53:00,4210E-3,5C000000,-0724,0836,12151,023.4,045.3,0.442,737.8,01.18,0.508
2017-02-15 03:54:00,3965E-3,5C000000,-0724,0837,12087,023.4,045.3,0.442,737.8,01.18,0.508
2017-02-15 03:55:00,4122E-3,5C000000,-0724,0836,12066,023.4,045.3,0.442,737.8,01.18,0.508
2017-02-15 03:56:00,3992E-3,5C000000,-0724,0836,12122,023.4,045.3,0.442,737.8,01.18,0.508
2017-02-15 03:57:00,4233E-3,5C000000,-0724,0837,12070,023.4,045.3,0.443,738.0,01.18,0.508
2017-02-15 03:58:00,4148E-3,5C000000,-0724,0837,12053,023.4,045.3,0.442,738.0,01.18,0.508
2017-02-15 03:59:00,4155E-3,5C000000,-0724,0836,11996,023.3,045.3,0.442,738.0,01.18,0.508
2017-02-15 04:00:00,4107E-3,5C000000,-0724,0837,12045,023.3,045.3,0.442,737.9,01.18,0.508
2017-02-15 04:01:00,4042E-3,5C000000,-0724,0836,12015,023.3,045.3,0.442,737.9,01.18,0.508
2017-02-15 04:02:00,4089E-3,5C000000,-0724,0836,12026,023.3,045.4,0.443,737.9,01.18,0.508
2017-02-15 04:03:00,4101E-3,5C000000,-0724,0836,12019,023.3,045.3,0.442,738.1,01.18,0.508
2017-02-15 04:04:00,4071E-3,5C000000,-0724,0837,12078,023.3,045.3,0.442,737.9,01.18,0.508
2017-02-15 04:05:00,3983E-3,5C000000,-0724,0836,12065,023.3,045.3,0.442,738.0,01.18,0.508
2017-02-15 04:06:00,4021E-3,5C000000,-0724,0836,12054,023.3,045.3,0.443,738.0,01.18,0.508
2017-02-15 04:07:00,3977E-3,5C000000,-0724,0836,12145,023.3,045.3,0.443,737.9,01.18,0.508
2017-02-15 04:08:00,4110E-3,5C000000,-0724,0836,12025,023.3,045.3,0.442,737.8,01.18,0.508
2017-02-15 04:09:00,4056E-3,5C000000,-0724,0836,12030,023.3,045.3,0.442,737.9,01.18,0.508
2017-02-15 04:10:00,4060E-3,5C000000,-0724,0836,12078,023.3,045.3,0.442,738.0,01.18,0.508
2017-02-15 04:11:00,4184E-3,5C000000,-0724,0836,12211,023.3,045.3,0.442,738.0,01.18,0.508
2017-02-15 04:12:00,4142E-3,5C000000,-0724,0836,12058,023.3,045.3,0.443,738.0,01.18,0.508
2017-02-15 04:13:00,4069E-3,5C000000,-0724,0836,11941,023.3,045.3,0.443,738.2,01.18,0.508
2017-02-15 04:14:00,4022E-3,5C000000,-0724,0836,12107,023.2,045.3,0.442,738.1,01.18,0.508
2017-02-15 04:15:00,4019E-3,5C000000,-0724,0836,12114,023.2,045.3,0.442,738.1,01.18,0.508
2017-02-15 04:16:00,4126E-3,5C000000,-0724,0836,12104,023.2,045.3,0.443,738.2,01.18,0.508
2017-02-15 04:17:00,4264E-3,5C000000,-0724,0836,12129,023.2,045.3,0.443,738.3,01.18,0.508
2017-02-15 04:18:00,3895E-3,5C000000,-0724,0837,12131,023.2,045.3,0.443,738.3,01.18,0.508
2017-02-15 04:19:00,4188E-3,5C000000,-0724,0836,11998,023.2,045.3,0.442,738.3,01.18,0.508
2017-02-15 04:20:00,4023E-3,5C000000,-0724,0836,12004,023.2,045.3,0.442,738.4,01.18,0.508